FW3337 Weather Reports


Display with metric or nautical units.
time (UTC)temp
F
wind
direction
speed
MPH
gust
MPH
rain 1hr
in
rain 24hr
in
rain mn
in
humidity
%
barometer
mb
20260903200015 83 247 0.0 0.0 0.00 0.27 0.27 76 1011.7
20260903194518 83 246 0.0 0.0 0.00 0.27 0.27 76 1011.7
20260903193012 83 247 0.0 1.0 0.00 0.27 0.27 76 1011.8
20260903191510 83 246 0.0 3.0 0.00 0.27 0.27 75 1011.8
20260903190009 83 239 0.0 4.0 0.00 0.43 0.27 75 1012.0
20260903184508 84 210 1.0 5.0 0.00 0.43 0.27 71 1012.0
20260903183006 85 185 0.0 3.0 0.00 0.43 0.27 72 1012.2
20260903181503 84 183 0.0 3.0 0.00 0.43 0.27 73 1012.2
20260903180001 83 201 0.0 2.0 0.00 0.43 0.27 73 1012.3
20260903174559 83 201 1.0 4.0 0.00 0.43 0.27 73 1012.4
20260903173056 82 303 0.0 5.0 0.00 0.43 0.27 75 1012.7
20260903171552 81 222 1.0 7.0 0.01 0.43 0.27 76 1012.8
20260903170100 81 212 1.0 4.0 0.01 0.43 0.27 77 1013.0
20260903164548 80 213 2.0 10.0 0.01 0.43 0.27 78 1013.1
20260903163047 79 241 1.0 7.0 0.01 0.43 0.27 79 1013.2
20260903161544 78 206 1.0 4.0 0.00 0.42 0.26 80 1013.3
20260903160040 77 210 0.0 5.0 0.00 0.42 0.26 82 1013.7
20260903154544 76 210 0.0 7.0 0.00 0.42 0.26 85 1013.9
20260903153032 75 256 0.0 5.0 0.00 0.42 0.26 88 1014.3
20260903151528 74 237 0.0 4.0 0.00 0.42 0.26 92 1014.0
20260903150024 72 209 1.0 5.0 0.00 0.42 0.26 94 1014.0
20260903144523 72 206 0.0 2.0 0.00 0.42 0.26 96 1014.2
20260903143017 71 141 0.0 2.0 0.00 0.42 0.26 98 1014.2
20260903141518 70 141 0.0 1.0 0.00 0.42 0.26 98 1014.3
20260903140015 70 92 0.0 2.0 0.00 0.42 0.26 98 1014.2
20260903134510 69 88 0.0 2.0 0.00 0.42 0.26 99 1014.3
20260903133009 69 88 0.0 0.0 0.00 0.42 0.26 99 1014.6
20260903131508 69 88 0.0 1.0 0.00 0.42 0.26 99 1014.1
20260903130008 69 88 0.0 1.0 0.00 0.42 0.26 99 1014.2
20260903124506 69 88 0.0 0.0 0.00 0.42 0.26 99 1014.8
20260903123005 68 88 0.0 1.0 0.00 0.42 0.26 99 1014.8
20260903121503 68 88 0.0 0.0 0.00 0.42 0.26 99 1014.8
20260903120001 67 88 0.0 0.0 0.00 0.42 0.26 99 1014.6
20260903114601 67 88 0.0 0.0 0.00 0.42 0.26 99 1014.7
20260903113059 67 88 0.0 1.0 0.00 0.42 0.26 99 1014.7
20260903111606 66 88 0.0 0.0 0.00 0.42 0.26 99 1014.9
20260903110057 66 88 0.0 0.0 0.00 0.42 0.26 99 1014.9
20260903104620 66 88 0.0 0.0 0.00 0.43 0.26 98 1014.9
20260903103104 66 88 0.0 0.0 0.00 0.43 0.26 98 1014.7
20260903101555 66 88 0.0 0.0 0.00 0.43 0.26 98 1015.0
20260903100155 66 88 0.0 0.0 0.00 0.43 0.26 98 1014.7
20260903094555 67 88 0.0 0.0 0.00 0.43 0.26 99 1014.5
20260903093102 67 88 0.0 0.0 0.00 0.43 0.26 99 1014.2
20260903091554 67 88 0.0 2.0 0.00 0.43 0.26 99 1014.5
20260903090052 66 88 0.0 2.0 0.00 0.43 0.26 98 1014.6
20260903084556 66 88 0.0 0.0 0.00 0.43 0.26 98 1014.8
20260903083057 66 88 0.0 0.0 0.00 0.43 0.26 98 1014.3
20260903081606 66 88 0.0 0.0 0.00 0.43 0.26 99 1014.8
20260903080046 66 88 0.0 0.0 0.00 0.43 0.26 99 1015.2
20260903074550 66 88 0.0 0.0 0.01 0.43 0.26 98 1015.4
20260903073044 66 88 0.0 0.0 0.01 0.43 0.26 98 1015.4
20260903071549 66 88 0.0 2.0 0.01 0.43 0.26 98 1015.4
20260903070042 66 88 0.0 0.0 0.01 0.43 0.26 98 1015.1
20260903064547 65 88 0.0 1.0 0.00 0.42 0.25 98 1015.3
20260903063045 65 88 0.0 2.0 0.00 0.42 0.25 98 1015.7
20260903061537 65 88 0.0 0.0 0.01 0.42 0.25 98 1015.8
20260903060037 65 88 0.0 0.0 0.07 0.42 0.25 98 1016.4
20260903054533 65 88 0.0 0.0 0.13 0.42 0.25 98 1016.5
20260903053036 65 88 0.0 0.0 0.19 0.42 0.25 98 1016.9
20260903051532 65 88 0.0 0.0 0.23 0.40 0.23 98 1016.7
20260903050040 65 88 0.0 2.0 0.18 0.35 0.18 98 1017.1
20260903044526 65 88 0.0 1.0 0.12 0.28 0.12 98 1018.5
20260903043024 65 84 0.0 1.0 0.05 0.22 0.05 98 1018.9
20260903041522 65 84 0.0 0.0 0.00 0.17 0.00 98 1018.1
20260903040020 65 84 0.0 0.0 0.00 0.17 0.17 98 1018.3
20260903034519 65 84 0.0 0.0 0.00 0.17 0.17 98 1018.1
20260903033019 65 84 0.0 0.0 0.00 0.17 0.17 98 1018.2
20260903031518 65 84 0.0 0.0 0.00 0.17 0.17 98 1018.2
20260903030017 65 84 0.0 0.0 0.00 0.17 0.17 98 1018.0
20260903024516 65 84 0.0 0.0 0.00 0.17 0.17 97 1018.3
20260903023025 65 84 0.0 2.0 0.00 0.17 0.17 98 1018.4
20260903021519 65 84 0.0 0.0 0.00 0.17 0.17 97 1018.2
20260903020045 65 84 0.0 0.0 0.00 0.17 0.17 97 1018.7
20260903014514 65 84 0.0 0.0 0.00 0.17 0.17 97 1018.6
20260903013013 65 84 0.0 0.0 0.00 0.17 0.17 97 1018.7
20260903011513 65 84 0.0 0.0 0.00 0.17 0.17 97 1018.8
20260903010012 65 84 0.0 0.0 0.00 0.18 0.17 97 1018.9
20260903004511 65 84 0.0 0.0 0.00 0.18 0.17 97 1019.0
20260903003011 65 84 0.0 0.0 0.00 0.18 0.17 97 1019.0
20260903001510 65 84 0.0 0.0 0.00 0.18 0.17 96 1019.0
20260903000010 65 84 0.0 0.0 0.00 0.18 0.17 96 1018.8
20260902234510 65 84 0.0 0.0 0.00 0.18 0.17 96 1018.2
20260902233011 65 84 0.0 3.0 0.00 0.18 0.17 96 1018.3
20260902231510 65 84 0.0 2.0 0.00 0.18 0.17 96 1018.6
20260902230008 66 73 0.0 0.0 0.00 0.18 0.17 96 1018.7
20260902224513 66 73 0.0 3.0 0.00 0.18 0.17 96 1018.7
20260902223007 66 70 0.0 3.0 0.00 0.18 0.17 96 1019.1
20260902221510 66 83 0.0 2.0 0.00 0.18 0.17 96 1019.1
20260902220008 67 94 0.0 2.0 0.00 0.18 0.17 96 1019.0
20260902214506 67 94 0.0 0.0 0.00 0.18 0.17 96 1019.3
20260902213005 67 94 0.0 2.0 0.00 0.18 0.17 96 1019.3
20260902211505 67 94 0.0 1.0 0.00 0.18 0.17 96 1019.1
20260902210004 67 94 0.0 1.0 0.00 0.18 0.17 96 1019.0
20260902204503 67 89 0.0 1.0 0.00 0.18 0.17 96 1019.3
20260902203004 67 66 0.0 3.0 0.00 0.18 0.17 96 1019.0
20260902201505 67 105 0.0 4.0 0.00 0.18 0.17 97 1018.9